Location: Santa Cristina
(46.5667°N, 11.7167°E)
Time: 18:05:31
(UTC+00:00)

BREEZE-M R/B - Pass Details

Date: 21 April 2021
Orbit: 311 x 4505 km, 49.7° (Epoch: 12 May)

Event Time Altitude Azimuth Distance (km) Brightness Sun altitude
Exits shadow 02:36:28 10° 287° (WNW) 2,123 5.5 -15.8°
Maximum altitude 02:41:14 71° 11° (NNE) 1,118 4.4 -15.1°
Drops below altitude 10° 02:51:59 10° 96° (E) 4,583 8.2 -13.6°
Sets 02:57:11 0° 99° (E) 6,324 9.0 -12.9°
